| time (UTC) | temp F | wind direction | speed MPH | gust MPH | rain 1hr in | rain 24hr in | rain mn in | humidity % | barometer mb |
| 20260506143555 | 74 | 205 | 2.0 | 5.0 | 0.00 | 0.00 | 0.00 | 88 | 1016.8 |
| 20260506143107 | 73 | 247 | 1.0 | 5.0 | 0.00 | 0.00 | 0.00 | 91 | 1016.8 |
| 20260506142602 | 73 | 236 | 2.0 | 4.0 | 0.00 | 0.00 | 0.00 | 89 | 1016.9 |
| 20260506142057 | 73 | 229 | 1.0 | 5.0 | 0.00 | 0.00 | 0.00 | 89 | 1016.8 |
| 20260506141559 | 73 | 229 | 1.0 | 5.0 | 0.00 | 0.00 | 0.00 | 89 | 1016.8 |
| 20260506141058 | 73 | 243 | 2.0 | 5.0 | 0.00 | 0.00 | 0.00 | 90 | 1016.7 |
| 20260506140556 | 73 | 272 | 1.0 | 7.0 | 0.00 | 0.00 | 0.00 | 91 | 1016.8 |
| 20260506140059 | 72 | 148 | 2.0 | 7.0 | 0.00 | 0.00 | 0.00 | 92 | 1016.8 |
| 20260506135555 | 72 | 266 | 2.0 | 6.0 | 0.00 | 0.00 | 0.00 | 92 | 1016.6 |
| 20260506135058 | 72 | 213 | 2.0 | 5.0 | 0.00 | 0.00 | 0.00 | 93 | 1016.7 |
| 20260506134557 | 72 | 239 | 0.0 | 4.0 | 0.00 | 0.00 | 0.00 | 94 | 1016.7 |
| 20260506134058 | 71 | 157 | 1.0 | 6.0 | 0.00 | 0.00 | 0.00 | 94 | 1016.4 |
| 20260506133558 | 71 | 190 | 1.0 | 6.0 | 0.00 | 0.00 | 0.00 | 94 | 1016.5 |
| 20260506133057 | 71 | 230 | 3.0 | 7.0 | 0.00 | 0.00 | 0.00 | 94 | 1016.3 |
| 20260506132628 | 71 | 233 | 1.0 | 7.0 | 0.00 | 0.00 | 0.00 | 94 | 1016.2 |
| 20260506132101 | 71 | 231 | 1.0 | 7.0 | 0.00 | 0.00 | 0.00 | 94 | 1016.1 |
| 20260506131559 | 71 | 240 | 2.0 | 7.0 | 0.00 | 0.00 | 0.00 | 94 | 1016.2 |
| 20260506131058 | 71 | 245 | 2.0 | 6.0 | 0.00 | 0.00 | 0.00 | 95 | 1015.9 |
| 20260506130559 | 70 | 144 | 3.0 | 6.0 | 0.00 | 0.00 | 0.00 | 94 | 1015.8 |
| 20260506125557 | 70 | 200 | 2.0 | 4.0 | 0.00 | 0.00 | 0.00 | 95 | 1015.7 |
| 20260506125059 | 70 | 146 | 1.0 | 5.0 | 0.00 | 0.00 | 0.00 | 96 | 1015.6 |
| 20260506124556 | 70 | 260 | 2.0 | 5.0 | 0.00 | 0.00 | 0.00 | 96 | 1015.7 |
| 20260506124058 | 69 | 155 | 1.0 | 4.0 | 0.00 | 0.00 | 0.00 | 97 | 1015.7 |
| 20260506123556 | 69 | 198 | 0.0 | 5.0 | 0.00 | 0.00 | 0.00 | 97 | 1015.5 |
| 20260506123057 | 68 | 178 | 1.0 | 5.0 | 0.00 | 0.00 | 0.00 | 97 | 1015.5 |
| 20260506122556 | 68 | 160 | 1.0 | 4.0 | 0.00 | 0.00 | 0.00 | 97 | 1015.6 |
| 20260506122055 | 68 | 193 | 0.0 | 4.0 | 0.00 | 0.00 | 0.00 | 97 | 1015.6 |
| 20260506121557 | 68 | 141 | 1.0 | 4.0 | 0.00 | 0.00 | 0.00 | 97 | 1015.5 |
| 20260506121055 | 67 | 145 | 0.0 | 1.0 | 0.00 | 0.00 | 0.00 | 97 | 1015.4 |
| 20260506120558 | 67 | 0 | 0.0 | 1.0 | 0.00 | 0.00 | 0.00 | 97 | 1015.4 |
| 20260506120101 | 67 | 150 | 0.0 | 1.0 | 0.00 | 0.00 | 0.00 | 97 | 1015.3 |
| 20260506115559 | 67 | 142 | 0.0 | 2.0 | 0.00 | 0.00 | 0.00 | 97 | 1015.2 |
| 20260506115056 | 67 | 0 | 0.0 | 2.0 | 0.00 | 0.00 | 0.00 | 97 | 1015.1 |
| 20260506114606 | 67 | 0 | 1.0 | 3.0 | 0.00 | 0.00 | 0.00 | 97 | 1014.9 |
| 20260506114101 | 67 | 0 | 0.0 | 3.0 | 0.00 | 0.00 | 0.00 | 97 | 1014.8 |
| 20260506113556 | 67 | 146 | 0.0 | 3.0 | 0.00 | 0.00 | 0.00 | 97 | 1014.7 |
| 20260506113057 | 67 | 136 | 0.0 | 2.0 | 0.00 | 0.00 | 0.00 | 97 | 1014.7 |
| 20260506112556 | 67 | 156 | 0.0 | 2.0 | 0.00 | 0.00 | 0.00 | 97 | 1014.7 |
| 20260506112055 | 67 | 0 | 0.0 | 2.0 | 0.00 | 0.00 | 0.00 | 97 | 1014.7 |
| 20260506111557 | 66 | 139 | 0.0 | 2.0 | 0.00 | 0.00 | 0.00 | 97 | 1014.6 |
| 20260506111055 | 66 | 143 | 0.0 | 2.0 | 0.00 | 0.00 | 0.00 | 97 | 1014.4 |
| 20260506110555 | 66 | 144 | 1.0 | 2.0 | 0.00 | 0.00 | 0.00 | 97 | 1014.4 |
| 20260506110103 | 66 | 146 | 0.0 | 3.0 | 0.00 | 0.00 | 0.00 | 97 | 1014.3 |
| 20260506105558 | 66 | 0 | 1.0 | 3.0 | 0.00 | 0.00 | 0.00 | 97 | 1014.1 |
| 20260506105057 | 66 | 138 | 0.0 | 3.0 | 0.00 | 0.00 | 0.00 | 97 | 1014.0 |
| 20260506104556 | 66 | 131 | 1.0 | 3.0 | 0.00 | 0.00 | 0.00 | 97 | 1013.8 |
| 20260506104055 | 66 | 150 | 1.0 | 4.0 | 0.00 | 0.00 | 0.00 | 97 | 1013.7 |
| 20260506103559 | 66 | 143 | 1.0 | 4.0 | 0.00 | 0.00 | 0.00 | 97 | 1013.6 |
| 20260506103057 | 66 | 150 | 2.0 | 5.0 | 0.00 | 0.00 | 0.00 | 97 | 1013.4 |
| 20260506102558 | 66 | 143 | 2.0 | 5.0 | 0.00 | 0.00 | 0.00 | 97 | 1013.4 |
| 20260506102059 | 66 | 144 | 2.0 | 4.0 | 0.00 | 0.00 | 0.00 | 97 | 1013.4 |
| 20260506101604 | 66 | 146 | 2.0 | 5.0 | 0.00 | 0.00 | 0.00 | 97 | 1013.4 |
| 20260506101055 | 66 | 128 | 3.0 | 5.0 | 0.00 | 0.00 | 0.00 | 97 | 1013.3 |
| 20260506100555 | 66 | 152 | 2.0 | 5.0 | 0.00 | 0.00 | 0.00 | 97 | 1013.2 |
| 20260506100056 | 66 | 141 | 2.0 | 4.0 | 0.00 | 0.00 | 0.00 | 97 | 1013.2 |
| 20260506095559 | 66 | 147 | 1.0 | 4.0 | 0.00 | 0.00 | 0.00 | 97 | 1013.3 |
| 20260506095058 | 66 | 171 | 1.0 | 6.0 | 0.00 | 0.00 | 0.00 | 97 | 1013.2 |
| 20260506094622 | 65 | 131 | 2.0 | 6.0 | 0.00 | 0.00 | 0.00 | 97 | 1013.2 |
| 20260506094057 | 65 | 150 | 2.0 | 6.0 | 0.00 | 0.00 | 0.00 | 97 | 1013.3 |
| 20260506093558 | 65 | 158 | 2.0 | 4.0 | 0.00 | 0.00 | 0.00 | 97 | 1013.3 |
| 20260506093057 | 65 | 149 | 1.0 | 3.0 | 0.00 | 0.00 | 0.00 | 97 | 1013.2 |
| 20260506092558 | 65 | 141 | 1.0 | 4.0 | 0.00 | 0.00 | 0.00 | 97 | 1013.2 |
| 20260506092058 | 65 | 126 | 1.0 | 4.0 | 0.00 | 0.00 | 0.00 | 97 | 1013.1 |
| 20260506091557 | 65 | 158 | 2.0 | 3.0 | 0.00 | 0.00 | 0.00 | 97 | 1013.2 |
| 20260506091058 | 65 | 144 | 1.0 | 4.0 | 0.00 | 0.00 | 0.00 | 97 | 1013.3 |
| 20260506090555 | 65 | 148 | 1.0 | 6.0 | 0.00 | 0.00 | 0.00 | 97 | 1013.2 |
| 20260506090059 | 65 | 142 | 3.0 | 6.0 | 0.00 | 0.00 | 0.00 | 97 | 1013.3 |
| 20260506085558 | 65 | 140 | 2.0 | 4.0 | 0.00 | 0.00 | 0.00 | 97 | 1013.4 |
| 20260506085058 | 65 | 143 | 2.0 | 3.0 | 0.00 | 0.00 | 0.00 | 97 | 1013.3 |
| 20260506084556 | 65 | 148 | 1.0 | 3.0 | 0.00 | 0.00 | 0.00 | 97 | 1013.4 |
| 20260506084058 | 65 | 141 | 1.0 | 3.0 | 0.00 | 0.00 | 0.00 | 97 | 1013.5 |
| 20260506083555 | 65 | 0 | 0.0 | 5.0 | 0.00 | 0.00 | 0.00 | 97 | 1013.5 |
| 20260506083103 | 65 | 0 | 1.0 | 6.0 | 0.00 | 0.00 | 0.00 | 97 | 1013.4 |
| 20260506082602 | 65 | 136 | 2.0 | 6.0 | 0.00 | 0.00 | 0.00 | 97 | 1013.5 |
| 20260506082055 | 65 | 140 | 3.0 | 6.0 | 0.00 | 0.00 | 0.00 | 97 | 1013.5 |
| 20260506081559 | 65 | 134 | 2.0 | 5.0 | 0.00 | 0.00 | 0.00 | 97 | 1013.6 |
| 20260506081058 | 65 | 146 | 1.0 | 4.0 | 0.00 | 0.00 | 0.00 | 97 | 1013.7 |
| 20260506080558 | 65 | 156 | 1.0 | 4.0 | 0.00 | 0.00 | 0.00 | 97 | 1013.8 |
| 20260506073105 | 66 | 136 | 0.0 | 5.0 | 0.00 | 0.00 | 0.00 | 97 | 1013.9 |
| 20260506072556 | 66 | 0 | 0.0 | 5.0 | 0.00 | 0.00 | 0.00 | 97 | 1013.9 |
| 20260506072058 | 66 | 145 | 1.0 | 5.0 | 0.00 | 0.00 | 0.00 | 97 | 1013.9 |
| 20260506071559 | 66 | 0 | 0.0 | 3.0 | 0.00 | 0.00 | 0.00 | 97 | 1013.9 |
| 20260506071056 | 66 | 121 | 0.0 | 3.0 | 0.00 | 0.00 | 0.00 | 97 | 1013.9 |
| 20260506070556 | 66 | 0 | 1.0 | 3.0 | 0.00 | 0.00 | 0.00 | 97 | 1014.0 |
| 20260506070109 | 66 | 140 | 0.0 | 4.0 | 0.00 | 0.00 | 0.00 | 97 | 1014.0 |
| 20260506062058 | 67 | 141 | 1.0 | 4.0 | 0.00 | 0.00 | 0.00 | 97 | 1014.4 |
| 20260506061558 | 67 | 130 | 1.0 | 4.0 | 0.00 | 0.00 | 0.00 | 97 | 1014.7 |
| 20260506061058 | 67 | 144 | 2.0 | 4.0 | 0.00 | 0.00 | 0.00 | 97 | 1014.7 |
| 20260506060557 | 66 | 159 | 0.0 | 2.0 | 0.00 | 0.00 | 0.00 | 97 | 1014.7 |
| 20260506051058 | 65 | 0 | 1.0 | 3.0 | 0.00 | 0.00 | 0.00 | 96 | 1014.9 |
| 20260506050558 | 65 | 147 | 0.0 | 2.0 | 0.00 | 0.00 | 0.00 | 96 | 1014.8 |
| 20260506045057 | 65 | 0 | 0.0 | 1.0 | 0.00 | 0.00 | 0.00 | 95 | 1015.2 |
| 20260506044557 | 65 | 0 | 0.0 | 2.0 | 0.00 | 0.00 | 0.00 | 95 | 1015.1 |
| 20260506044055 | 65 | 144 | 0.0 | 2.0 | 0.00 | 0.00 | 0.00 | 95 | 1015.1 |
| 20260506043555 | 66 | 147 | 0.0 | 2.0 | 0.00 | 0.00 | 0.00 | 95 | 1015.2 |
| 20260506043059 | 66 | 148 | 0.0 | 2.0 | 0.00 | 0.00 | 0.00 | 94 | 1015.1 |
| 20260506042559 | 66 | 146 | 0.0 | 2.0 | 0.00 | 0.00 | 0.00 | 94 | 1015.2 |
| 20260506042101 | 66 | 147 | 0.0 | 2.0 | 0.00 | 0.00 | 0.00 | 94 | 1015.3 |
| 20260506041558 | 66 | 0 | 0.0 | 2.0 | 0.00 | 0.00 | 0.00 | 93 | 1015.3 |
| 20260506041058 | 66 | 148 | 0.0 | 2.0 | 0.00 | 0.00 | 0.00 | 93 | 1015.4 |
| 20260506040558 | 66 | 0 | 0.0 | 2.0 | 0.00 | 0.00 | 0.00 | 93 | 1015.3 |
| 20260506035631 | 66 | 148 | 0.0 | 2.0 | 0.00 | 0.00 | 0.00 | 92 | 1015.4 |
| 20260506035058 | 66 | 144 | 0.0 | 2.0 | 0.00 | 0.00 | 0.00 | 92 | 1015.4 |
| 20260506034611 | 66 | 0 | 0.0 | 0.0 | 0.00 | 0.00 | 0.00 | 91 | 1015.5 |
| 20260506034057 | 67 | 0 | 0.0 | 1.0 | 0.00 | 0.00 | 0.00 | 91 | 1015.7 |
| 20260506033557 | 67 | 0 | 0.0 | 2.0 | 0.00 | 0.00 | 0.00 | 91 | 1015.8 |
| 20260506033056 | 67 | 0 | 0.0 | 2.0 | 0.00 | 0.00 | 0.00 | 90 | 1015.8 |
| 20260506032558 | 67 | 135 | 0.0 | 2.0 | 0.00 | 0.00 | 0.00 | 90 | 1015.8 |
| 20260506032101 | 67 | 165 | 0.0 | 1.0 | 0.00 | 0.00 | 0.00 | 89 | 1015.6 |
| 20260506031605 | 67 | 129 | 0.0 | 2.0 | 0.00 | 0.00 | 0.00 | 89 | 1015.8 |
| 20260506031059 | 67 | 156 | 0.0 | 2.0 | 0.00 | 0.00 | 0.00 | 88 | 1015.7 |
| 20260506030600 | 67 | 145 | 0.0 | 3.0 | 0.00 | 0.00 | 0.00 | 88 | 1015.7 |
| 20260506025558 | 67 | 0 | 0.0 | 3.0 | 0.00 | 0.00 | 0.00 | 87 | 1015.6 |
| 20260506025058 | 67 | 146 | 0.0 | 3.0 | 0.00 | 0.00 | 0.00 | 87 | 1015.5 |
| 20260506024557 | 68 | 146 | 0.0 | 3.0 | 0.00 | 0.00 | 0.00 | 86 | 1015.4 |
| 20260506024059 | 68 | 142 | 0.0 | 2.0 | 0.00 | 0.00 | 0.00 | 85 | 1015.3 |
| 20260506023558 | 68 | 153 | 0.0 | 2.0 | 0.00 | 0.00 | 0.00 | 85 | 1015.3 |
| 20260506023059 | 68 | 0 | 0.0 | 1.0 | 0.00 | 0.00 | 0.00 | 84 | 1015.3 |
| 20260506022558 | 68 | 0 | 0.0 | 3.0 | 0.00 | 0.00 | 0.00 | 84 | 1015.3 |
| 20260506022059 | 68 | 139 | 0.0 | 3.0 | 0.00 | 0.00 | 0.00 | 83 | 1015.1 |
| 20260506021600 | 69 | 0 | 1.0 | 3.0 | 0.00 | 0.00 | 0.00 | 83 | 1015.0 |
| 20260506021058 | 69 | 134 | 1.0 | 3.0 | 0.00 | 0.00 | 0.00 | 83 | 1015.0 |
| 20260506020557 | 69 | 0 | 1.0 | 3.0 | 0.00 | 0.00 | 0.00 | 82 | 1014.9 |
| 20260506020101 | 69 | 0 | 1.0 | 3.0 | 0.00 | 0.00 | 0.00 | 82 | 1014.9 |
| 20260506015558 | 69 | 0 | 1.0 | 3.0 | 0.00 | 0.00 | 0.00 | 81 | 1014.9 |
| 20260506015100 | 69 | 144 | 0.0 | 4.0 | 0.00 | 0.00 | 0.00 | 81 | 1014.9 |
| 20260506014557 | 69 | 0 | 0.0 | 4.0 | 0.00 | 0.00 | 0.00 | 80 | 1014.9 |
| 20260506014059 | 70 | 141 | 2.0 | 4.0 | 0.00 | 0.00 | 0.00 | 80 | 1014.7 |
| 20260506013558 | 70 | 139 | 2.0 | 5.0 | 0.00 | 0.00 | 0.00 | 79 | 1014.7 |
| 20260506013059 | 70 | 139 | 2.0 | 5.0 | 0.00 | 0.00 | 0.00 | 78 | 1014.8 |
| 20260506012559 | 70 | 141 | 1.0 | 3.0 | 0.00 | 0.00 | 0.00 | 78 | 1014.8 |
| 20260506012058 | 70 | 173 | 1.0 | 3.0 | 0.00 | 0.00 | 0.00 | 78 | 1014.8 |
| 20260506011606 | 71 | 146 | 1.0 | 4.0 | 0.00 | 0.00 | 0.00 | 77 | 1014.9 |
| 20260506011058 | 71 | 145 | 1.0 | 4.0 | 0.00 | 0.00 | 0.00 | 77 | 1014.8 |
| 20260506010603 | 71 | 139 | 1.0 | 5.0 | 0.00 | 0.00 | 0.00 | 76 | 1014.9 |
| 20260506010059 | 71 | 134 | 2.0 | 5.0 | 0.00 | 0.00 | 0.00 | 76 | 1014.8 |
| 20260506005557 | 71 | 157 | 1.0 | 4.0 | 0.00 | 0.00 | 0.00 | 76 | 1014.7 |
| 20260506005058 | 71 | 148 | 2.0 | 4.0 | 0.00 | 0.00 | 0.00 | 75 | 1014.8 |
| 20260506004602 | 72 | 169 | 1.0 | 5.0 | 0.00 | 0.00 | 0.00 | 75 | 1014.7 |
| 20260506004058 | 72 | 142 | 2.0 | 6.0 | 0.00 | 0.00 | 0.00 | 74 | 1014.6 |
| 20260506003558 | 72 | 121 | 2.0 | 6.0 | 0.00 | 0.00 | 0.00 | 74 | 1014.6 |
| 20260506003059 | 72 | 156 | 2.0 | 6.0 | 0.00 | 0.00 | 0.00 | 73 | 1014.5 |
| 20260506002559 | 72 | 135 | 1.0 | 6.0 | 0.00 | 0.00 | 0.00 | 73 | 1014.6 |
| 20260506002058 | 73 | 131 | 2.0 | 6.0 | 0.00 | 0.00 | 0.00 | 72 | 1014.5 |
| 20260506001602 | 73 | 141 | 2.0 | 6.0 | 0.00 | 0.00 | 0.00 | 72 | 1014.3 |
| 20260506001058 | 73 | 0 | 2.0 | 6.0 | 0.00 | 0.00 | 0.00 | 71 | 1014.4 |
| 20260506000600 | 74 | 148 | 3.0 | 6.0 | 0.00 | 0.00 | 0.00 | 71 | 1014.4 |
| 20260506000105 | 74 | 117 | 2.0 | 5.0 | 0.00 | 0.00 | 0.00 | 71 | 1014.4 |
| 20260505235559 | 74 | 143 | 2.0 | 6.0 | 0.00 | 0.00 | 0.00 | 74 | 1014.4 |
| 20260505235058 | 75 | 146 | 2.0 | 6.0 | 0.00 | 0.00 | 0.00 | 70 | 1014.3 |
| 20260505234604 | 75 | 133 | 1.0 | 5.0 | 0.00 | 0.00 | 0.00 | 70 | 1014.4 |
| 20260505234058 | 75 | 173 | 2.0 | 8.0 | 0.00 | 0.00 | 0.00 | 69 | 1014.3 |
| 20260505233602 | 75 | 201 | 3.0 | 8.0 | 0.00 | 0.00 | 0.00 | 69 | 1014.3 |
| 20260505233111 | 75 | 205 | 3.0 | 7.0 | 0.00 | 0.00 | 0.00 | 68 | 1014.3 |
| 20260505232558 | 76 | 166 | 1.0 | 4.0 | 0.00 | 0.00 | 0.00 | 68 | 1014.3 |
| 20260505232058 | 76 | 127 | 2.0 | 6.0 | 0.00 | 0.00 | 0.00 | 67 | 1014.3 |
| 20260505231605 | 77 | 105 | 2.0 | 6.0 | 0.00 | 0.00 | 0.00 | 67 | 1014.2 |
| 20260505231101 | 77 | 148 | 1.0 | 7.0 | 0.00 | 0.00 | 0.00 | 65 | 1014.1 |
| 20260505230557 | 77 | 157 | 4.0 | 7.0 | 0.00 | 0.00 | 0.00 | 65 | 1014.0 |
| 20260505230059 | 77 | 216 | 2.0 | 6.0 | 0.00 | 0.00 | 0.00 | 65 | 1013.9 |
| 20260505225558 | 77 | 141 | 2.0 | 8.0 | 0.00 | 0.00 | 0.00 | 65 | 1013.8 |
| 20260505225058 | 77 | 138 | 3.0 | 8.0 | 0.00 | 0.00 | 0.00 | 64 | 1014.0 |
| 20260505224558 | 78 | 146 | 3.0 | 8.0 | 0.00 | 0.00 | 0.00 | 64 | 1013.9 |
| 20260505224055 | 78 | 139 | 2.0 | 6.0 | 0.00 | 0.00 | 0.00 | 64 | 1014.0 |
| 20260505223558 | 78 | 156 | 2.0 | 6.0 | 0.00 | 0.00 | 0.00 | 64 | 1014.1 |
| 20260505223057 | 78 | 137 | 2.0 | 8.0 | 0.00 | 0.00 | 0.00 | 63 | 1014.1 |
| 20260505222558 | 79 | 146 | 2.0 | 8.0 | 0.00 | 0.00 | 0.00 | 62 | 1014.0 |
| 20260505222058 | 79 | 217 | 3.0 | 11.0 | 0.00 | 0.00 | 0.00 | 64 | 1013.9 |
| 20260505221559 | 79 | 144 | 4.0 | 11.0 | 0.00 | 0.00 | 0.00 | 64 | 1013.8 |
| 20260505221057 | 79 | 135 | 2.0 | 10.0 | 0.00 | 0.00 | 0.00 | 64 | 1013.7 |
| 20260505220559 | 79 | 137 | 4.0 | 10.0 | 0.00 | 0.00 | 0.00 | 61 | 1013.6 |
| 20260505220100 | 79 | 135 | 3.0 | 7.0 | 0.00 | 0.00 | 0.00 | 62 | 1013.7 |
| 20260505215558 | 79 | 138 | 3.0 | 7.0 | 0.00 | 0.00 | 0.00 | 65 | 1013.8 |
| 20260505215058 | 79 | 210 | 3.0 | 7.0 | 0.00 | 0.00 | 0.00 | 62 | 1013.8 |
| 20260505214600 | 79 | 234 | 3.0 | 7.0 | 0.00 | 0.00 | 0.00 | 62 | 1013.9 |
| 20260505214058 | 80 | 160 | 2.0 | 8.0 | 0.00 | 0.00 | 0.00 | 61 | 1014.0 |
| 20260505213557 | 79 | 236 | 1.0 | 11.0 | 0.00 | 0.00 | 0.00 | 62 | 1014.0 |
| 20260505213059 | 79 | 138 | 4.0 | 11.0 | 0.00 | 0.00 | 0.00 | 62 | 1013.9 |
| 20260505212559 | 80 | 145 | 5.0 | 11.0 | 0.00 | 0.00 | 0.00 | 63 | 1013.9 |
| 20260505212055 | 80 | 98 | 3.0 | 7.0 | 0.00 | 0.00 | 0.00 | 61 | 1014.1 |
| 20260505211610 | 80 | 141 | 3.0 | 9.0 | 0.00 | 0.00 | 0.00 | 62 | 1014.1 |
| 20260505211100 | 79 | 213 | 3.0 | 9.0 | 0.00 | 0.00 | 0.00 | 66 | 1013.9 |
| 20260505210555 | 79 | 140 | 3.0 | 6.0 | 0.00 | 0.00 | 0.00 | 63 | 1013.9 |
| 20260505205558 | 79 | 144 | 4.0 | 9.0 | 0.00 | 0.00 | 0.00 | 65 | 1014.0 |
| 20260505205101 | 80 | 139 | 4.0 | 9.0 | 0.00 | 0.00 | 0.00 | 64 | 1014.0 |
| 20260505204603 | 80 | 146 | 3.0 | 9.0 | 0.00 | 0.00 | 0.00 | 65 | 1013.9 |
| 20260505204058 | 80 | 137 | 3.0 | 8.0 | 0.00 | 0.00 | 0.00 | 61 | 1013.9 |
| 20260505203558 | 80 | 194 | 4.0 | 9.0 | 0.00 | 0.00 | 0.00 | 62 | 1014.0 |
| 20260505203059 | 79 | 149 | 4.0 | 10.0 | 0.00 | 0.00 | 0.00 | 63 | 1014.1 |
| 20260505202559 | 80 | 139 | 4.0 | 10.0 | 0.00 | 0.00 | 0.00 | 62 | 1014.0 |
| 20260505202058 | 80 | 147 | 4.0 | 9.0 | 0.00 | 0.00 | 0.00 | 64 | 1014.1 |
| 20260505201601 | 81 | 129 | 3.0 | 8.0 | 0.00 | 0.00 | 0.00 | 64 | 1014.0 |
| 20260505201055 | 80 | 319 | 3.0 | 9.0 | 0.00 | 0.00 | 0.00 | 62 | 1014.1 |
| 20260505200558 | 80 | 201 | 4.0 | 9.0 | 0.00 | 0.00 | 0.00 | 61 | 1014.2 |
| 20260505200103 | 81 | 258 | 2.0 | 8.0 | 0.00 | 0.00 | 0.00 | 61 | 1014.2 |
| 20260505195555 | 80 | 152 | 3.0 | 9.0 | 0.00 | 0.00 | 0.00 | 59 | 1014.4 |
| 20260505195058 | 81 | 202 | 4.0 | 9.0 | 0.00 | 0.00 | 0.00 | 62 | 1014.4 |
| 20260505194609 | 81 | 171 | 2.0 | 8.0 | 0.00 | 0.00 | 0.00 | 59 | 1014.3 |
| 20260505194059 | 81 | 181 | 3.0 | 8.0 | 0.00 | 0.00 | 0.00 | 59 | 1014.2 |
| 20260505193601 | 80 | 165 | 2.0 | 9.0 | 0.00 | 0.00 | 0.00 | 63 | 1014.2 |
| 20260505193058 | 80 | 212 | 4.0 | 9.0 | 0.00 | 0.00 | 0.00 | 59 | 1014.3 |
| 20260505192559 | 80 | 125 | 2.0 | 12.0 | 0.00 | 0.00 | 0.00 | 61 | 1014.5 |
| 20260505192059 | 80 | 236 | 4.0 | 12.0 | 0.00 | 0.00 | 0.00 | 60 | 1014.5 |
| 20260505191556 | 80 | 269 | 4.0 | 10.0 | 0.00 | 0.00 | 0.00 | 60 | 1014.5 |
| 20260505191058 | 80 | 200 | 3.0 | 10.0 | 0.00 | 0.00 | 0.00 | 61 | 1014.7 |
| 20260505190557 | 80 | 142 | 4.0 | 10.0 | 0.00 | 0.00 | 0.00 | 57 | 1014.8 |
| 20260505190107 | 80 | 223 | 3.0 | 8.0 | 0.00 | 0.00 | 0.00 | 61 | 1015.0 |
| 20260505185600 | 80 | 239 | 2.0 | 10.0 | 0.00 | 0.00 | 0.00 | 63 | 1015.2 |
| 20260505185058 | 79 | 221 | 3.0 | 10.0 | 0.00 | 0.00 | 0.00 | 60 | 1015.2 |
| 20260505184557 | 79 | 127 | 1.0 | 9.0 | 0.00 | 0.00 | 0.00 | 62 | 1015.2 |
| 20260505184059 | 79 | 115 | 3.0 | 9.0 | 0.00 | 0.00 | 0.00 | 60 | 1015.3 |
| 20260505183601 | 80 | 174 | 4.0 | 9.0 | 0.00 | 0.00 | 0.00 | 63 | 1015.4 |
| 20260505183101 | 79 | 276 | 3.0 | 8.0 | 0.00 | 0.00 | 0.00 | 61 | 1015.5 |
| 20260505182558 | 79 | 251 | 2.0 | 10.0 | 0.00 | 0.00 | 0.00 | 63 | 1015.5 |
| 20260505182058 | 79 | 243 | 2.0 | 10.0 | 0.00 | 0.00 | 0.00 | 58 | 1015.6 |
| 20260505181600 | 78 | 136 | 4.0 | 10.0 | 0.00 | 0.00 | 0.00 | 62 | 1015.6 |
| 20260505181058 | 77 | 138 | 2.0 | 7.0 | 0.00 | 0.00 | 0.00 | 60 | 1015.5 |
| 20260505180557 | 78 | 251 | 3.0 | 7.0 | 0.00 | 0.00 | 0.00 | 58 | 1015.5 |
| 20260505175559 | 78 | 247 | 3.0 | 10.0 | 0.00 | 0.00 | 0.00 | 61 | 1015.8 |
| 20260505175058 | 77 | 221 | 3.0 | 10.0 | 0.00 | 0.00 | 0.00 | 60 | 1015.8 |
| 20260505174609 | 77 | 232 | 4.0 | 11.0 | 0.00 | 0.00 | 0.00 | 60 | 1015.9 |
| 20260505174058 | 77 | 221 | 4.0 | 11.0 | 0.00 | 0.00 | 0.00 | 65 | 1016.1 |
| 20260505173558 | 77 | 259 | 3.0 | 10.0 | 0.00 | 0.00 | 0.00 | 62 | 1016.1 |
| 20260505173100 | 76 | 234 | 4.0 | 10.0 | 0.00 | 0.00 | 0.00 | 65 | 1016.0 |
| 20260505172558 | 76 | 152 | 4.0 | 10.0 | 0.00 | 0.00 | 0.00 | 66 | 1016.1 |
| 20260505172058 | 76 | 131 | 2.0 | 9.0 | 0.00 | 0.00 | 0.00 | 64 | 1016.0 |
| 20260505171604 | 75 | 213 | 4.0 | 9.0 | 0.00 | 0.00 | 0.00 | 64 | 1016.1 |
| 20260505171059 | 75 | 139 | 4.0 | 8.0 | 0.00 | 0.00 | 0.00 | 67 | 1016.1 |
| 20260505170558 | 75 | 131 | 3.0 | 9.0 | 0.00 | 0.00 | 0.00 | 66 | 1016.2 |
| 20260505165558 | 75 | 120 | 3.0 | 9.0 | 0.00 | 0.00 | 0.00 | 66 | 1016.0 |
| 20260505165059 | 74 | 128 | 4.0 | 10.0 | 0.00 | 0.00 | 0.00 | 64 | 1016.1 |
| 20260505164622 | 74 | 157 | 2.0 | 10.0 | 0.00 | 0.00 | 0.00 | 65 | 1016.0 |
| 20260505164100 | 74 | 217 | 3.0 | 11.0 | 0.00 | 0.00 | 0.00 | 64 | 1016.1 |
| 20260505163558 | 74 | 119 | 3.0 | 11.0 | 0.00 | 0.00 | 0.00 | 65 | 1016.1 |
| 20260505163108 | 73 | 255 | 1.0 | 9.0 | 0.00 | 0.00 | 0.00 | 68 | 1016.2 |
| 20260505162559 | 73 | 140 | 3.0 | 9.0 | 0.00 | 0.00 | 0.00 | 67 | 1016.2 |
| 20260505162055 | 73 | 143 | 4.0 | 9.0 | 0.00 | 0.00 | 0.00 | 68 | 1016.3 |
| 20260505161615 | 73 | 95 | 3.0 | 9.0 | 0.00 | 0.00 | 0.00 | 64 | 1016.1 |
| 20260505161058 | 72 | 202 | 2.0 | 6.0 | 0.00 | 0.00 | 0.00 | 66 | 1016.3 |
| 20260505160555 | 72 | 141 | 2.0 | 7.0 | 0.00 | 0.00 | 0.00 | 66 | 1016.4 |
| 20260505153101 | 70 | 139 | 1.0 | 7.0 | 0.00 | 0.00 | 0.00 | 66 | 1016.5 |
| 20260505152558 | 70 | 150 | 4.0 | 7.0 | 0.00 | 0.00 | 0.00 | 66 | 1016.5 |
| 20260505152058 | 70 | 141 | 3.0 | 7.0 | 0.00 | 0.00 | 0.00 | 70 | 1016.5 |
| 20260505151558 | 70 | 83 | 1.0 | 7.0 | 0.00 | 0.00 | 0.00 | 72 | 1016.5 |
| 20260505151102 | 69 | 68 | 0.0 | 5.0 | 0.00 | 0.00 | 0.00 | 69 | 1016.7 |
| 20260505150558 | 69 | 91 | 1.0 | 5.0 | 0.00 | 0.00 | 0.00 | 72 | 1016.6 |